Location: Cahas Mountain Overlook
(37.0833°N, 80.1000°W)
Time: 03:14:28
(UTC-05:00)

Altair - Visible Passes

Search period start: 15 February 2026 00:00
Search period end: 25 February 2026 00:00
Orbit: 1502 x 1682 km, 47.2° (Epoch: 13 February)

Date Brightness Start Highest point End Pass type
(mag) Time Alt. Az. Time Alt. Az. Time Alt. Az.
15 Feb 8.9 03:12:43 23° SE 03:12:47 23° SE 03:19:33 10° ENE visible
15 Feb 7.4 05:10:46 28° SW 05:16:21 80° SE 05:25:49 10° ENE visible
16 Feb 9.1 02:49:23 20° ESE 02:49:23 20° ESE 02:53:57 10° E visible
16 Feb 7.5 04:47:26 41° SW 04:51:09 75° SE 05:00:32 10° ENE visible
17 Feb 9.4 02:25:55 15° E 02:25:55 15° E 02:28:16 10° E visible
17 Feb 7.5 04:23:58 56° SSW 04:25:58 70° SE 04:35:15 10° ENE visible
17 Feb 7.7 06:22:00 10° W 06:31:01 55° NNW 06:40:21 10° ENE visible
18 Feb 9.7 02:02:22 10° E 02:02:22 10° E 02:02:29 10° E visible
18 Feb 7.5 04:00:24 64° SSE 04:00:47 65° SE 04:09:58 10° ENE visible
18 Feb 7.7 05:58:26 17° W 06:05:42 57° NNW 06:15:02 10° ENE visible
19 Feb 7.8 03:36:46 56° ESE 03:36:46 56° ESE 03:44:40 10° ENE visible
19 Feb 7.6 05:34:48 26° W 05:40:23 59° NNW 05:49:44 10° ENE visible
20 Feb 8.2 03:13:04 43° E 03:13:04 43° E 03:19:22 10° ENE visible
20 Feb 7.5 05:11:04 36° W 05:15:05 62° NNW 05:24:26 10° ENE visible
21 Feb 8.6 02:49:16 32° E 02:49:16 32° E 02:54:04 10° ENE visible
21 Feb 7.4 04:47:17 49° W 04:49:48 65° NNW 04:59:09 10° ENE visible
22 Feb 9.0 02:25:27 24° ENE 02:25:27 24° ENE 02:28:45 10° ENE visible
22 Feb 7.3 04:23:28 64° WNW 04:24:31 69° NNW 04:33:52 10° ENE visible
22 Feb 8.1 06:21:44 10° WNW 06:30:30 45° N 06:39:34 10° ENE visible
23 Feb 9.3 02:01:34 17° ENE 02:01:34 17° ENE 02:03:25 10° ENE visible
23 Feb 7.4 03:59:35 72° NNW 03:59:35 72° NNW 04:08:37 10° ENE visible
23 Feb 8.0 05:57:36 15° WNW 06:05:09 45° N 06:14:11 10° ENE visible
24 Feb 9.6 01:37:40 11° ENE 01:37:40 11° ENE 01:38:04 10° ENE visible
24 Feb 7.6 03:35:40 63° NNE 03:35:40 63° NNE 03:43:21 10° ENE visible
24 Feb 8.0 05:33:41 21° WNW 05:39:48 46° N 05:48:48 10° ENE visible
